Location: Grand Lay
(47.3253°N, 0.9468°E)
Time: 21:34:29
(UTC+00:00)

Cosmos 1805 Rocket - Pass Details

Date: 18 January 2026
Orbit: 598 x 623 km, 82.5° (Epoch: 17 February)

Event Time Altitude Azimuth Distance (km) Brightness Sun altitude
Rises 05:09:30 0° 187° (S) 2,891 7.0 -24.5°
Reaches altitude 10° 05:11:43 10° 187° (S) 1,988 6.1 -24.1°
Maximum altitude 05:16:08 88° 100° (E) 629 3.5 -23.4°
Drops below altitude 10° 05:20:34 10° 10° (N) 1,995 6.2 -22.6°
Sets 05:22:48 0° 10° (N) 2,903 7.1 -22.2°
